Tracking 25734 objects as of 28-May-2022
HD Live streaming from Space Station
objects crossing your sky now

NOAA 17 DEB

Track NOAA 17 DEB now!
10-day predictions


NORAD ID: 48726
Int'l Code: 2002-032BL
Perigee: 703.6 km
Apogee: 793.8 km
Inclination: 99.0 °
Period: 99.6 minutes
Semi major axis: 7119 km
RCS: Unknown
Launch date: June 24, 2002
Source: United States (US)
Launch site: AIR FORCE WESTERN TEST RANGE (AFWTR)

Note: This is SATELLITE DEBRIS
aabbcc
Your satellite tracking list
Your tracking list is empty




NASA's NSSDC Master Catalog

Two Line Element Set (TLE):
1 48726U 02032BK  22148.19633201  .00008557  00000-0  23971-2 0  9995
2 48726  98.9619 122.9912 0063395 137.6365 222.9745 14.45138721 58879
Source of the keplerian elements: AFSPC